Find Starlink 2657

NORAD ID: 48655 Int'l Des: 2021-044 Owner: SPXS Country: US Constellation: starlink operational
LEOCIRCULAR

Current View

Loading 3D Globe...

About Starlink 2657

Starlink 2657 (NORAD 48655) is a starlink constellation satellite (v1.0) launched May 26, 2021 by SPXS of US. It operates in LEO, CIRCULAR orbit with a mass of 260.00 kg.

About Starlink 2657

Description loading...

Upcoming Passes

Passes for default location (London). Set your location on the main map for personalized predictions.

Altitude History

Loading altitude history...

Two-Line Element Set

1 48655U 21044T 26170.90817727 .00000268 00000-0 20389-4 0 9998
2 48655 53.1614 358.4466 0001199 100.7250 259.3887 15.31696852279489
Epoch: Jun 19, 2026 • Age: 21 hours

Current Status

Altitude 473.5 km
Velocity 7.63 km/s
Sub-Earth Point 38.16°N, 154.29°W
Launch Date May 26, 2021
Age 5 years
Type internet

Technical Details

Classification Payload
Mass 260.00 kg
Dry Mass 248.00 kg
Total Mass 260.00 kg
Length 0.20 m
Diameter 2.80 m
Span 9.00 m
Shape Box + pan
Manufacturer SPXS
Bus Type Starlink
Phase Status In Orbit
Owner/State SPXS/US

Most Searched